When you browse on this site, cookies collect data to enhance your experience and personalize the content and advertising you see.
Visit our Privacy Policy to learn more. By continuing to use the site, you agree to this use of cookies and data.
  • In France
  • List of Countries
  • For 7 days
  • Water Temperature
  • Weather Map
  • Weather Widgets
  • user-avatar
    Login

    Hourly Weather Wavre

    Today, 13 December, Friday

    Time Temperature Precipitation Wind Pressure Humidity
    00:00 +2°C° 0 mm 8 mps 729 mmHg 81%
    01:00 +2°C° 0.1 mm 8 mps 727 mmHg 84%
    02:00 +4°C° 0.1 mm 7 mps 726 mmHg 87%
    03:00 +4°C° 0.1 mm 6 mps 725 mmHg 90%
    04:00 +4°C° 1.8 mm 6 mps 724 mmHg 89%
    05:00 +4°C° 1.8 mm 6 mps 723 mmHg 89%
    06:00 +5°C° 0 mm 6 mps 723 mmHg 84%
    07:00 +4°C° 0.7 mm 7 mps 724 mmHg 87%
    08:00 +4°C° 0.7 mm 7 mps 724 mmHg 89%
    09:00 +4°C° 0.7 mm 8 mps 724 mmHg 91%
    10:00 +4°C° 1 mm 8 mps 725 mmHg 91%
    11:00 +4°C° 1 mm 8 mps 726 mmHg 91%
    12:00 +4°C° 1 mm 8 mps 727 mmHg 91%
    13:00 +4°C° 1.4 mm 8 mps 728 mmHg 89%
    14:00 +4°C° 1.4 mm 8 mps 729 mmHg 88%
    15:00 +5°C° 1.4 mm 8 mps 730 mmHg 87%
    16:00 +4°C° 0.1 mm 8 mps 731 mmHg 84%
    17:00 +4°C° 0.1 mm 7 mps 732 mmHg 81%
    18:00 +4°C° 0.1 mm 7 mps 733 mmHg 78%
    19:00 +4°C° 0 mm 6 mps 734 mmHg 78%
    20:00 +4°C° 0 mm 6 mps 734 mmHg 79%
    21:00 +3°C° 0 mm 6 mps 735 mmHg 79%
    22:00 +3°C° 0 mm 6 mps 734 mmHg 81%
    23:00 +3°C° 0 mm 7 mps 734 mmHg 83%

    Tomorrow, 14 December, Saturday

    Time Temperature Precipitation Wind Pressure Humidity
    00:00 +2°C° 0 mm 7 mps 734 mmHg 84%
    01:00 +3°C° 0.9 mm 7 mps 733 mmHg 86%
    02:00 +4°C° 0.9 mm 7 mps 732 mmHg 88%
    03:00 +5°C° 0.9 mm 7 mps 731 mmHg 90%
    04:00 +5°C° 0.2 mm 8 mps 731 mmHg 88%
    05:00 +6°C° 0.2 mm 10 mps 732 mmHg 86%
    06:00 +6°C° 0.2 mm 11 mps 733 mmHg 84%
    07:00 +5°C° 0.1 mm 10 mps 735 mmHg 78%
    08:00 +3°C° 0.1 mm 9 mps 736 mmHg 72%
    09:00 +3°C° 0.1 mm 9 mps 738 mmHg 66%
    10:00 +4°C° 0.2 mm 8 mps 738 mmHg 71%
    11:00 +4°C° 0.2 mm 8 mps 739 mmHg 76%
    12:00 +4°C° 0.2 mm 7 mps 740 mmHg 81%
    13:00 +4°C° 0.5 mm 7 mps 740 mmHg 82%
    14:00 +4°C° 0.5 mm 7 mps 741 mmHg 82%
    15:00 +4°C° 0.5 mm 7 mps 741 mmHg 83%
    16:00 +4°C° 0 mm 6 mps 742 mmHg 82%
    17:00 +4°C° 0 mm 6 mps 742 mmHg 82%
    18:00 +3°C° 0 mm 5 mps 743 mmHg 81%
    19:00 +3°C° 0 mm 5 mps 743 mmHg 81%
    20:00 +4°C° 0 mm 6 mps 743 mmHg 82%
    21:00 +4°C° 0 mm 6 mps 743 mmHg 82%
    22:00 +4°C° 0 mm 7 mps 742 mmHg 83%
    23:00 +5°C° 0 mm 8 mps 741 mmHg 83%

    Day after tomorrow, 15 December, Sunday

    Time Temperature Precipitation Wind Pressure Humidity
    00:00 +6°C° 0 mm 9 mps 740 mmHg 83%
    01:00 +6°C° 0.9 mm 10 mps 739 mmHg 82%
    02:00 +7°C° 0.9 mm 10 mps 739 mmHg 81%
    03:00 +8°C° 0.9 mm 11 mps 739 mmHg 79%
    04:00 +7°C° 0.5 mm 9 mps 740 mmHg 78%
    05:00 +6°C° 0.5 mm 8 mps 741 mmHg 77%
    06:00 +5°C° 0.5 mm 7 mps 742 mmHg 76%
    07:00 +5°C° 0 mm 7 mps 743 mmHg 76%
    08:00 +4°C° 0 mm 7 mps 744 mmHg 75%
    09:00 +4°C° 0 mm 7 mps 744 mmHg 75%
    10:00 +5°C° 0 mm 7 mps 745 mmHg 72%
    11:00 +5°C° 0 mm 8 mps 746 mmHg 70%
    12:00 +6°C° 0 mm 8 mps 746 mmHg 67%
    13:00 +5°C° 0 mm 7 mps 746 mmHg 69%
    14:00 +5°C° 0 mm 7 mps 747 mmHg 72%
    15:00 +5°C° 0 mm 6 mps 747 mmHg 74%
    16:00 +5°C° 0 mm 6 mps 747 mmHg 76%
    17:00 +4°C° 0 mm 6 mps 747 mmHg 77%
    18:00 +4°C° 0 mm 6 mps 747 mmHg 79%
    19:00 +4°C° 0 mm 6 mps 748 mmHg 80%
    20:00 +4°C° 0 mm 6 mps 748 mmHg 80%
    21:00 +4°C° 0 mm 6 mps 748 mmHg 80%
    22:00 +4°C° 0 mm 6 mps 748 mmHg 82%
    23:00 +5°C° 0 mm 5 mps 748 mmHg 83%

    16 December, Monday

    Time Temperature Precipitation Wind Pressure Humidity
    00:00 +5°C° 0 mm 5 mps 748 mmHg 85%
    01:00 +5°C° 0 mm 5 mps 748 mmHg 87%
    02:00 +5°C° 0 mm 5 mps 748 mmHg 88%
    03:00 +5°C° 0 mm 5 mps 748 mmHg 90%
    04:00 +6°C° 0 mm 4 mps 748 mmHg 90%
    05:00 +6°C° 0 mm 4 mps 747 mmHg 90%
    06:00 +6°C° 0 mm 4 mps 747 mmHg 89%
    07:00 +6°C° 0.1 mm 4 mps 747 mmHg 90%
    08:00 +6°C° 0.1 mm 4 mps 747 mmHg 90%
    09:00 +8°C° 0.1 mm 3 mps 747 mmHg 91%
    10:00 +8°C° 0.5 mm 3 mps 747 mmHg 91%
    11:00 +8°C° 0.5 mm 2 mps 746 mmHg 92%
    12:00 +9°C° 0.5 mm 1 mps 746 mmHg 93%
    13:00 +8°C° 0.1 mm 2 mps 745 mmHg 92%
    14:00 +9°C° 0.1 mm 2 mps 745 mmHg 90%
    15:00 +9°C° 0.1 mm 3 mps 745 mmHg 89%
    16:00 +9°C° 0 mm 2 mps 744 mmHg 89%
    17:00 +9°C° 0 mm 2 mps 744 mmHg 89%
    18:00 +9°C° 0 mm 2 mps 744 mmHg 90%
    19:00 +9°C° 0.3 mm 3 mps 744 mmHg 90%
    20:00 +9°C° 0.3 mm 3 mps 744 mmHg 90%
    21:00 +9°C° 0.3 mm 3 mps 744 mmHg 90%
    22:00 +10°C° 0 mm 3 mps 743 mmHg 87%
    23:00 +10°C° 0 mm 3 mps 743 mmHg 85%

    17 December, Tuesday

    Time Temperature Precipitation Wind Pressure Humidity
    00:00 +10°C° 0 mm 4 mps 743 mmHg 83%
    01:00 +9°C° 0 mm 5 mps 743 mmHg 80%
    02:00 +10°C° 0 mm 6 mps 743 mmHg 77%
    03:00 +10°C° 0 mm 7 mps 743 mmHg 75%
    04:00 +10°C° 0 mm 7 mps 743 mmHg 76%
    05:00 +10°C° 0 mm 6 mps 744 mmHg 78%
    06:00 +10°C° 0 mm 6 mps 744 mmHg 80%
    07:00 +10°C° 0 mm 6 mps 745 mmHg 82%
    08:00 +9°C° 0 mm 6 mps 745 mmHg 83%
    09:00 +9°C° 0 mm 5 mps 746 mmHg 85%
    10:00 +9°C° 0.2 mm 5 mps 746 mmHg 86%
    11:00 +10°C° 0.2 mm 4 mps 746 mmHg 87%
    12:00 +10°C° 0.2 mm 3 mps 746 mmHg 89%
    13:00 +9°C° 0.3 mm 3 mps 747 mmHg 89%
    14:00 +9°C° 0.3 mm 3 mps 747 mmHg 90%
    15:00 +8°C° 0.3 mm 2 mps 748 mmHg 91%
    16:00 +8°C° 0 mm 2 mps 748 mmHg 91%
    17:00 +8°C° 0 mm 2 mps 749 mmHg 91%
    18:00 +7°C° 0 mm 2 mps 749 mmHg 91%
    19:00 +7°C° 0.2 mm 2 mps 750 mmHg 91%
    20:00 +7°C° 0.2 mm 2 mps 750 mmHg 90%
    21:00 +8°C° 0.2 mm 1 mps 751 mmHg 89%
    22:00 +7°C° 0 mm 1 mps 751 mmHg 89%
    23:00 +7°C° 0 mm 1 mps 751 mmHg 89%

    18 December, Wednesday

    Time Temperature Precipitation Wind Pressure Humidity
    00:00 +7°C° 0 mm 1 mps 752 mmHg 88%
    01:00 +6°C° 0 mm 1 mps 752 mmHg 89%
    02:00 +6°C° 0 mm 1 mps 752 mmHg 90%
    03:00 +5°C° 0 mm 1 mps 753 mmHg 90%
    04:00 +5°C° 0 mm 1 mps 753 mmHg 91%
    05:00 +5°C° 0 mm 1 mps 754 mmHg 91%
    06:00 +5°C° 0 mm 1 mps 754 mmHg 91%
    07:00 +5°C° 0 mm 1 mps 754 mmHg 91%
    08:00 +5°C° 0 mm 1 mps 755 mmHg 91%
    09:00 +5°C° 0 mm 1 mps 755 mmHg 91%
    10:00 +6°C° 0 mm 1 mps 755 mmHg 86%
    11:00 +7°C° 0 mm 1 mps 755 mmHg 82%
    12:00 +8°C° 0 mm 1 mps 755 mmHg 77%
    13:00 +8°C° 0 mm 1 mps 755 mmHg 80%
    14:00 +7°C° 0 mm 1 mps 755 mmHg 82%
    15:00 +6°C° 0 mm 0 mps 755 mmHg 84%
    16:00 +6°C° 0 mm 1 mps 755 mmHg 86%
    17:00 +6°C° 0 mm 1 mps 755 mmHg 88%
    18:00 +4°C° 0 mm 2 mps 754 mmHg 90%
    19:00 +4°C° 0 mm 2 mps 754 mmHg 90%
    20:00 +4°C° 0 mm 2 mps 754 mmHg 90%
    21:00 +3°C° 0 mm 2 mps 754 mmHg 90%
    22:00 +3°C° 0 mm 2 mps 753 mmHg 90%
    23:00 +3°C° 0 mm 2 mps 753 mmHg 91%
    Show more